Covington, KY

8:15 AM EST on December 06, 2019 (GMT -0500)
Cincinnati-Northern KY International

Weather History for KCVG - October, 2019

Change the Weather History Date:

Wednesday, October 30, 2019

  Actual Average Record
Temperature  
Mean Temperature 54 °F 51 °F  
Max Temperature 57 °F 61 °F 83 °F (1927)
Min Temperature 50 °F 41 °F 22 °F (1980)
Degree Days  
Heating Degree Days 11 14  
Month to date heating degree days 195 290  
Since 1 July heating degree days 195 348  
Cooling Degree Days 0 0  
Month to date cooling degree days 55 16  
Year to date cooling degree days 1497 1121  
Growing Degree Days 4 (Base 50)    
Moisture  
Dew Point 53 °F    
Average Humidity 90    
Maximum Humidity 96    
Minimum Humidity 83    
Precipitation  
Precipitation 0.60 in 0.11 in 0.88 in (1976)
Month to date precipitation 2.81 3.19  
Year to date precipitation 45.23 35.61  
Snow  
Snow 0.00 in 0.00 in 5.90 in (1993)
Month to date snowfall 0.0 0.4  
Since 1 July snowfall 0.0 0.4  
Since 1 September snowfall 0.0 0.4  
Snow Depth 0.00 in    
Sea Level Pressure  
Sea Level Pressure 29.99 in    
Wind  
Wind Speed 5 mph ()    
Max Wind Speed 15 mph    
Max Gust Speed 17 mph    
Visibility 4.6 miles    
Events Fog , Rain    
T = Trace of Precipitation, MM = Missing Value Source: Averaged Metar Reports

Daily Weather History Graph

Daily Weather History Graph

Search for Another Location

Airport or City:

Astronomy

Oct. 30, 2019 Rise Set
Actual Time 8:03 AM EDT 6:40 PM EDT
Civil Twilight 7:36 AM EDT 7:07 PM EDT
Nautical Twilight 7:04 AM EDT 7:39 PM EDT
Astronomical Twilight 6:33 AM EDT 8:10 PM EDT
Moon 10:44 AM EDT (10/30) 8:48 PM EDT (10/30)
Length of Visible Light 11h 31m
Length of Day
10h 36m
Waxing Crescent, 8% of the Moon is Illuminated
Oct 30
Waxing Crescent
Nov 4
First Quarter
Nov 12
Full
Nov 19
Last Quarter
Nov 26
New

Hourly Weather History & Observations

Time (EDT) Temp. Dew Point Humidity Pressure Visibility Wind Dir Wind Speed Gust Speed Precip Events Conditions
12:52 AM 50.0 °F 46.9 °F 89% 30.18 in 7.0 mi Calm Calm - N/A   Overcast
1:52 AM 53.1 °F 48.0 °F 83% 30.17 in 8.0 mi Calm Calm - N/A   Overcast
2:52 AM 52.0 °F 50.0 °F 93% 30.17 in 5.0 mi Calm Calm - N/A   Overcast
3:52 AM 53.1 °F 50.0 °F 89% 30.16 in 7.0 mi NNE 5.8 mph - N/A   Overcast
4:52 AM 53.1 °F 50.0 °F 89% 30.14 in 7.0 mi NE 9.2 mph - N/A   Overcast
5:30 AM 53.1 °F 48.9 °F 86% 30.15 in 7.0 mi NE 8.1 mph - N/A   Overcast
5:52 AM 53.1 °F 48.9 °F 86% 30.14 in 7.0 mi NE 9.2 mph - N/A   Overcast
6:27 AM 53.1 °F 48.9 °F 86% 30.14 in 8.0 mi NE 10.4 mph - N/A   Overcast
6:52 AM 53.1 °F 48.9 °F 86% 30.14 in 8.0 mi NE 10.4 mph - N/A   Overcast
7:52 AM 53.1 °F 48.9 °F 86% 30.13 in 8.0 mi ENE 8.1 mph - N/A   Overcast
8:52 AM 53.1 °F 48.9 °F 86% 30.12 in 7.0 mi ENE 10.4 mph - N/A   Overcast
9:52 AM 53.1 °F 48.9 °F 86% 30.11 in 5.0 mi East 12.7 mph - 0.00 in Rain Light Rain
10:52 AM 54.0 °F 50.0 °F 86% 30.08 in 6.0 mi East 9.2 mph - 0.03 in Rain Light Rain
11:44 AM 54.0 °F 51.1 °F 90% 30.06 in 6.0 mi East 8.1 mph - 0.00 in Rain Light Rain
11:52 AM 54.0 °F 51.1 °F 90% 30.05 in 6.0 mi East 8.1 mph - 0.00 in   Overcast
12:39 PM 55.0 °F 51.1 °F 86% 30.04 in 6.0 mi ENE 8.1 mph - 0.01 in   Overcast
12:52 PM 55.0 °F 52.0 °F 89% 30.03 in 6.0 mi East 9.2 mph - 0.01 in   Overcast
1:52 PM 55.9 °F 52.0 °F 87% 30.00 in 6.0 mi NE 8.1 mph - 0.00 in   Overcast
2:52 PM 55.9 °F 53.1 °F 90% 29.95 in 4.0 mi ENE 6.9 mph - 0.00 in Rain Light Rain
3:07 PM 55.9 °F 53.1 °F 90% 29.95 in 2.5 mi ENE 8.1 mph - 0.00 in Rain Rain
3:42 PM 55.9 °F 53.1 °F 90% 29.94 in 1.8 mi East 5.8 mph - 0.07 in Rain Rain
3:52 PM 55.9 °F 54.0 °F 93% 29.94 in 1.5 mi ENE 6.9 mph - 0.11 in Rain Heavy Rain
4:21 PM 55.9 °F 54.0 °F 93% 29.93 in 1.5 mi East 9.2 mph - 0.18 in Rain Heavy Rain
4:41 PM 55.9 °F 54.0 °F 93% 29.91 in 2.0 mi ESE 9.2 mph - 0.27 in Rain Rain
4:52 PM 55.9 °F 54.0 °F 93% 29.90 in 2.5 mi ESE 10.4 mph - 0.31 in Rain Rain
5:28 PM 57.0 °F 55.0 °F 93% 29.89 in 3.0 mi ESE 5.8 mph - 0.09 in Rain Rain
5:39 PM 57.9 °F 55.0 °F 90% 29.88 in 7.0 mi ESE 5.8 mph - 0.10 in Rain Light Rain
5:52 PM 57.9 °F 55.0 °F 90% 29.88 in 5.0 mi Calm Calm - 0.11 in Rain Rain
6:07 PM 57.9 °F 55.0 °F 90% 29.88 in 5.0 mi SE 6.9 mph - 0.01 in Rain Light Rain
6:52 PM 57.9 °F 55.9 °F 93% 29.86 in 8.0 mi ESE 3.5 mph - 0.03 in Rain Light Rain
7:52 PM 57.9 °F 55.9 °F 93% 29.87 in 9.0 mi Calm Calm - 0.00 in   Overcast
8:23 PM 57.9 °F 55.9 °F 93% 29.86 in 2.0 mi Calm Calm - 0.00 in Rain Light Rain
8:38 PM 57.9 °F 55.9 °F 93% 29.86 in 1.0 mi South 3.5 mph - 0.00 in   Overcast
8:52 PM 57.9 °F 55.9 °F 93% 29.86 in 0.5 mi SSE 6.9 mph - 0.00 in   Overcast
9:52 PM 57.9 °F 55.9 °F 93% 29.85 in 1.5 mi SW 3.5 mph - N/A   Overcast
10:12 PM 57.9 °F 55.9 °F 93% 29.86 in 1.5 mi WSW 3.5 mph - N/A   Overcast
10:41 PM 57.9 °F 55.9 °F 93% 29.86 in 0.8 mi West 3.5 mph - 0.00 in   Light Drizzle
10:52 PM 57.9 °F 55.9 °F 93% 29.84 in 0.5 mi West 3.5 mph - 0.00 in Fog Light Drizzle
11:52 PM 57.9 °F 55.9 °F 93% 29.84 in 0.5 mi WSW 3.5 mph - 0.00 in Fog Light Drizzle